Current weather by "City, St" or "zip code"  
 
Advertise Here

Current Conditions: Phoenix, Phoenix-Deer Valley Municipal Airport, AZ

Fair


43.0 F

Last Updated on Jan 18 2021, 2:53 am MST
Humidity: 26%
Wind Speed: N 0.0 mph
Barometer 29.91 in
Dewpoint: 10.0 F
Visibility: 10.00 mi
Precip: --
Heat Index: NA
Wind Chill: NA
Current conditions at:

Phoenix, Phoenix-Deer Valley Municipal Airport, AZ (KDVT)

Lat: 33.69026 Lon: 112.06618

Local Radar Image active severe weather and emergency alerts image image weather storm and storm spotter reports image weather observation monitoring service image
Local
Radar
Active
Alerts
Storm Reports Obs
Monitoring

Sign-up For Email & Text Message Weather Alert Notification Services


Advertise Here

Observation History for Phoenix, Phoenix-Deer Valley Municipal Airport, AZ


Time Wind
(mph)
Vis
(mi)
Weather Precip (in) Temperature (F) Relative
Humidity
Wind
Chill
(F)
Heat
Index
(F)
Pressure
Air Dwpt altimeter
(in)
sea level
(mb)
Rmks
2:53 am MST N 0.0 10.00 Fair -- 43.0 10.0 26% NA NA 29.91 1011.7
1:53 am MST N 0.0 10.00 Fair -- 46.0 10.0 23% NA NA 29.90 1011.5
12:53 am MST N 0.0 10.00 Fair -- 51.0 9.0 18% NA NA 29.91 1011.5
11:53 pm MST NE 8.1 10.00 Fair -- 55.0 9.0 16% 53 NA 29.92 1012.0
10:53 pm MST 4.6 10.00 Fair -- 53.0 10.0 18% 52 NA 29.94 1012.7
9:53 pm MST N 0.0 10.00 Fair -- 52.0 10.0 18% NA NA 29.95 1013.2
8:53 pm MST 5.8 10.00 Fair -- 53.0 10.9 18% 51 NA 29.95 1013.5
7:53 pm MST N 0.0 10.00 Fair -- 55.0 12.0 18% NA NA 29.96 1013.7
6:53 pm MST N 3.5 10.00 Fair -- 63.0 10.9 13% NA NA 29.96 1013.4
5:53 pm MST SW 3.5 10.00 Fair -- 70.0 10.0 10% NA NA 29.96 1013.2
4:53 pm MST SW 3.5 10.00 Fair -- 74.0 10.0 8% NA NA 29.97 1013.3
3:53 pm MST S 5.8 10.00 Fair -- 75.0 9.0 8% NA NA 29.98 1013.8
2:53 pm MST SW 4.6 10.00 Fair -- 75.0 8.1 7% NA NA 30.00 1014.5
1:53 pm MST S 4.6 10.00 Fair -- 73.0 12.0 9% NA NA 30.02 1015.2
12:53 pm MST 4.6 10.00 Fair -- 70.0 12.9 11% NA NA 30.05 1016.3
11:53 am MST N 0.0 10.00 Fair -- 68.0 15.1 13% NA NA 30.09 1017.7
10:53 am MST N 0.0 10.00 Fair -- 65.0 16.0 15% NA NA 30.12 1018.6
9:53 am MST N 0.0 10.00 Fair -- 60.0 16.0 18% NA NA 30.12 1018.8
8:53 am MST N 0.0 10.00 Fair -- 53.0 15.1 22% NA NA 30.10 1018.2
7:53 am MST N 0.0 10.00 Fair -- 48.0 12.9 24% NA NA 30.09 1018.0
6:53 am MST NE 9.2 10.00 Fair -- 50.0 12.9 22% 46 NA 30.08 1017.6
5:53 am MST N 9.2 10.00 Fair -- 52.0 12.9 21% 49 NA 30.07 1017.3
4:53 am MST NE 6.9 10.00 Fair -- 56.0 14.0 19% 54 NA 30.07 1017.0
3:53 am MST N 3.5 10.00 Fair -- 47.0 16.0 29% NA NA 30.07 1017.0

Regional Weather Observation


Glendale, Glendale Municipal Airport, AZ (KGEU)

Fair
68.0 F

Luke Air Force Base / Phoenix, AZ (KLUF)

Fair
43.0 F

Phoenix, Phoenix Sky Harbor International Airport, AZ (KPHX)

Fair
49.0 F

Goodyear Municipal, AZ (KGYR)

A Few Clouds
73.0 F

Buckeye Municipal Airport, AZ (KBXK)

NULL
59.0 F

Scottsdale Airport, AZ (KSDL)

Fair
43.0 F